Voltar ao catálogo

TIANMU-1 QIXIANG XINGZOU 01

AtivoMeteoSSO
NORAD 55135·PAYLOAD·🇨🇳 China
Este nome de satélite ainda não foi confirmado por fontes oficiais.

Lançado Jan 9, 2023 de Jiuquan Satellite Launch Center

Loading…

Próximas Passagens (próximas 24 horas)

TLE

AtualizadoSource: Space-Track

Época: Sep 14, 2026, 15:33 UTC

1 55135U 23003C   26257.64852352  .00022034  00000-0  27979-3 0  9992
2 55135  97.1447 334.4909 0003816 138.5464 221.6084 15.59420606206205

Acompanhe TIANMU-1 QIXIANG XINGZOU 01 em tempo real com AllMySat

Download on the App Store